This demonstration page uses our WeatherBlox Daily Observations layout. Learn more.

Left ArrowRight Arrow

31.84235, -102.49876

Hourly Observations for March 9, 2022

Temp ( °F °C ) Dew Point ( °F °C ) Humidity (%) Winds ( mph kmh ) Pressure ( in mb ) Visibility ( mi km ) Precip ( " mm )
12:53 am 00:53 Clear 39 3.9 18 -7.8 43 43 ESE 8 13 29.96 1015 10 16 0.00 0.00
1:53 am 01:53 Clear 38 3.3 18 -7.8 44 44 S 7 11 29.98 1015 10 16 0.00 0.00
2:53 am 02:53 Clear 38 3.3 20 -6.7 48 48 SSE 9 15 29.98 1015 10 16 0.00 0.00
3:53 am 03:53 Clear 35 1.7 20 -6.7 54 54 SE 9 15 29.97 1015 10 16 0.00 0.00
4:53 am 04:53 Clear 35 1.7 20 -6.7 54 54 SE 8 13 29.97 1015 10 16 0.00 0.00
5:53 am 05:53 Clear 32 0 20 -6.7 61 61 SE 7 11 29.98 1015 10 16 0.00 0.00
6:53 am 06:53 Clear 32 0 20 -6.7 61 61 SSE 7 11 29.99 1016 10 16 0.00 0.00
7:53 am 07:53 Sunny 37 2.8 21 -6.1 52 52 S 10 17 29.99 1016 10 16 0.00 0.00
8:53 am 08:53 Sunny 43 6.1 22 -5.6 43 43 S 14 22 30.00 1016 10 16 0.00 0.00
9:53 am 09:53 Sunny 50 10 21 -6.1 32 32 S 20 31 29.97 1015 10 16 0.00 0.00
10:53 am 10:53 Sunny 56 13.3 23 -5 28 28 S 21 33 29.93 1014 10 16 0.00 0.00
11:53 am 11:53 Sunny 59 15 24 -4.4 26 26 S 21 33 29.91 1013 10 16 0.00 0.00
12:53 pm 12:53 Sunny 60 15.6 23 -5 24 24 SSE 24 39 29.86 1011 10 16 0.00 0.00
1:53 pm 13:53 Sunny 62 16.7 23 -5 22 22 S 21 33 29.82 1010 10 16 0.00 0.00
2:53 pm 14:53 Sunny 65 18.3 23 -5 20 20 S 20 31 29.77 1008 10 16 0.00 0.00
3:53 pm 15:53 Sunny 65 18.3 24 -4.4 21 21 S 21 33 29.75 1008 10 16 0.00 0.00
4:53 pm 16:53 Sunny 65 18.3 24 -4.4 21 21 SSW 15 24 29.74 1007 10 16 0.00 0.00
5:53 pm 17:53 Sunny 64 17.8 25 -3.9 23 23 S 16 26 29.73 1007 10 16 0.00 0.00
6:53 pm 18:53 Sunny 61 16.1 25 -3.9 25 25 S 15 24 29.74 1007 10 16 0.00 0.00
7:53 pm 19:53 Clear 58 14.4 26 -3.3 29 29 SSE 13 20 29.75 1007 10 16 0.00 0.00
8:53 pm 20:53 Clear 55 12.8 26 -3.3 33 33 SSE 13 20 29.76 1008 10 16 0.00 0.00
9:53 pm 21:53 Clear 53 11.7 27 -2.8 37 37 S 13 20 29.77 1008 10 16 0.00 0.00
10:53 pm 22:53 Clear 51 10.6 27 -2.8 39 39 S 10 17 29.76 1008 10 16 0.00 0.00
11:53 pm 23:53 Clear 50 10 27 -2.8 41 41 S 12 19 29.76 1008 10 16 0.00 0.00

Powered by AerisWeather